sat.trackr.live / text

‹ back to catalog

ONEWEB-0373

NORAD 49299 · 2021-090W

PAYLOAD ACTIVE UNKNOWN

§ Identity

Operator
Country
UK
Launch date
2021-10-14
Launch site
VOSTO
Launch vehicle
Mass (kg)
RCS (m²)

Purposes: comms

External: N2YO · Heavens-Above · Gunter

§ Orbital elements

Epoch: 2026-05-25T01:57:42.079392Z

Period
109.03 min
Inclination
87.9172°
Eccentricity
0.0001952
Mean motion
13.20770436 rev/d
Perigee alt
1,180.3 km
Apogee alt
1,183.3 km
Semi-major
7,559.9 km
B*
1.6303e-4
RAAN
279.0490°
Arg perigee
101.5438°
Mean anomaly
258.5914°
Rev number
22,797

§ Raw data

ONEWEB-03731 49299U 21090W   26145.08173703  .00000079  00000+0  16303-3 0  99932 49299  87.9172 279.0490 0001952 101.5438 258.5914 13.20770436227973

JSON: /api/v1/satellites/49299 · /tle

For live sub-satellite position, see the globe view (requires WebGL).

§ Visibility from observer

Set your observer location to see the next 7 days of passes ≥ 10°. The values pass through the URL so the page stays shareable.

No JS? Fill the form by hand. The geolocation button needs JavaScript.